GW2041 Weather Reports


Display with metric or nautical units.
time (UTC)temp
F
wind
direction
speed
MPH
gust
MPH
rain 1hr
in
rain 24hr
in
rain mn
in
humidity
%
barometer
mb
20260905052236 56 135 2.0 4.0 0.00 0.00 0.00 90 1015.3
20260905051240 56 225 2.0 5.0 0.00 0.00 0.00 90 1015.3
20260905050258 56 270 3.0 7.0 0.00 0.00 0.00 90 1015.3
20260905045724 56 158 3.0 6.0 0.00 0.00 0.00 90 1015.2
20260905044239 56 135 3.0 7.0 0.00 0.00 0.00 90 1015.2
20260905043234 56 180 3.0 6.0 0.00 0.00 0.00 90 1015.0
20260905042233 56 180 2.0 6.0 0.00 0.00 0.00 90 1015.0
20260905041226 56 180 2.0 5.0 0.00 0.00 0.00 90 1014.9
20260905040224 56 158 3.0 0.0 0.00 0.00 0.00 89 1014.9
20260905035337 56 180 2.0 4.0 0.00 0.00 0.00 89 1014.8
20260905034337 56 248 2.0 5.0 0.00 0.00 0.00 89 1014.8
20260905033341 56 158 3.0 4.0 0.00 0.00 0.00 89 1015.0
20260905032815 56 225 3.0 5.0 0.00 0.00 0.00 89 1015.0
20260905031335 57 248 3.0 6.0 0.00 0.00 0.00 89 1014.8
20260905030404 57 338 2.0 5.0 0.00 0.00 0.00 89 1014.8
20260905025338 57 248 3.0 5.0 0.00 0.00 0.00 88 1014.7
20260905024336 57 203 3.0 4.0 0.00 0.00 0.00 89 1014.7
20260905023338 57 180 3.0 7.0 0.00 0.00 0.00 89 1014.5
20260905022829 57 225 3.0 5.0 0.00 0.00 0.00 88 1014.5
20260905021328 57 225 3.0 5.0 0.00 0.00 0.00 89 1014.7
20260905020335 57 158 2.0 4.0 0.00 0.00 0.00 88 1014.7
20260905015318 57 180 2.0 4.0 0.00 0.00 0.00 88 1014.5
20260905014316 57 158 2.0 5.0 0.00 0.00 0.00 88 1014.5
20260905013315 57 135 2.0 4.0 0.00 0.00 0.00 88 1014.3
20260905012310 57 180 1.0 4.0 0.00 0.00 0.00 88 1014.3
20260905011309 58 180 1.0 3.0 0.00 0.00 0.00 88 1014.4
20260905005256 58 180 2.0 5.0 0.00 0.00 0.00 87 1014.3
20260905004245 58 135 2.0 6.0 0.00 0.00 0.00 87 1014.3
20260905003245 58 248 3.0 6.0 0.00 0.00 0.00 87 1014.5
20260905002246 58 248 3.0 7.0 0.00 0.00 0.00 87 1014.5
20260905001240 58 113 3.0 6.0 0.00 0.00 0.00 87 1014.4
20260905000245 59 180 3.0 6.0 0.00 0.00 0.00 87 1014.4
20260904235714 59 315 3.0 8.0 0.00 0.00 0.00 87 1014.3
20260904234240 59 180 4.0 8.0 0.00 0.00 0.00 87 1014.3
20260904233244 59 270 3.0 5.0 0.00 0.00 0.00 88 1014.1
20260904232240 59 315 4.0 8.0 0.00 0.00 0.00 88 1014.1
20260904231240 59 180 4.0 6.0 0.00 0.00 0.00 88 1014.1
20260904230242 59 180 4.0 8.0 0.00 0.00 0.00 88 1014.1
20260904225241 59 248 3.0 8.0 0.00 0.00 0.00 88 1014.0
20260904224230 59 180 3.0 4.0 0.00 0.00 0.00 88 1014.0
20260904223235 59 158 3.0 6.0 0.00 0.00 0.00 89 1013.8
20260904222237 59 180 3.0 5.0 0.00 0.00 0.00 89 1013.8
20260904221228 59 225 3.0 4.0 0.00 0.00 0.00 89 1013.7
20260904220225 60 225 3.0 0.0 0.00 0.00 0.00 89 1013.7
20260904215758 60 225 2.0 4.0 0.00 0.03 0.33 89 1013.7
20260904214801 60 225 3.0 6.0 0.00 0.03 0.33 89 1013.7
20260904213754 60 158 3.0 5.0 0.00 0.03 0.33 90 1013.6
20260904212755 60 158 3.0 6.0 0.00 0.03 0.33 90 1013.6
20260904211754 60 158 2.0 4.0 0.00 0.03 0.33 90 1013.6
20260904210754 60 248 2.0 4.0 0.00 0.03 0.33 90 1013.6
20260904205751 61 270 2.0 4.0 0.00 0.03 0.33 90 1013.5
20260904204752 61 180 2.0 6.0 0.00 0.03 0.33 90 1013.5
20260904203751 61 270 2.0 6.0 0.00 0.03 0.33 90 1013.3
20260904202751 61 225 3.0 9.0 0.00 0.03 0.33 90 1013.3
20260904202231 60 180 2.0 5.0 0.00 0.03 0.33 90 1013.3
20260904200752 61 248 3.0 5.0 0.00 0.03 0.33 90 1013.3
20260904195752 61 248 3.0 6.0 0.00 0.03 0.33 90 1013.1
20260904194752 61 180 2.0 5.0 0.00 0.03 0.33 90 1013.1
20260904193750 61 248 3.0 7.0 0.00 0.03 0.33 90 1012.8
20260904192750 61 293 3.0 9.0 0.00 0.03 0.33 90 1012.8
20260904191751 61 270 3.0 6.0 0.00 0.03 0.33 90 1012.6
20260904190747 61 270 3.0 5.0 0.03 0.03 0.33 90 1012.6
20260904185749 61 225 3.0 8.0 0.03 0.03 0.33 90 1012.3
20260904184748 61 225 4.0 8.0 0.03 0.03 0.33 90 1012.3
20260904183749 62 293 5.0 10.0 0.03 0.03 0.33 89 1012.3
20260904182747 62 270 5.0 10.0 0.03 0.03 0.33 89 1012.3
20260904181746 63 203 4.0 8.0 0.03 0.03 0.33 89 1011.8
20260904180744 63 270 5.0 10.0 0.00 0.00 0.30 89 1011.8
20260904175743 63 315 4.0 7.0 0.00 0.00 0.30 89 1011.5
20260904174747 64 248 5.0 8.0 0.00 0.00 0.30 89 1011.5
20260904173744 64 248 4.0 7.0 0.00 0.00 0.30 90 1011.5
20260904172742 64 225 4.0 7.0 0.00 0.00 0.30 90 1011.5
20260904171746 64 225 4.0 12.0 0.00 0.00 0.30 90 1011.1
20260904170743 64 270 8.0 12.0 0.00 0.00 0.30 90 1011.1
20260904165743 64 225 4.0 9.0 0.00 0.00 0.30 92 1011.3
20260904164747 65 270 4.0 6.0 0.00 0.00 0.30 92 1011.3
20260904164218 65 248 5.0 8.0 0.00 0.00 0.30 92 1010.9
20260904162746 65 203 5.0 9.0 0.00 0.00 0.30 92 1010.9
20260904161749 65 315 5.0 7.0 0.00 0.00 0.30 93 1010.9
20260904160747 64 248 5.0 9.0 0.00 0.00 0.30 93 1010.9
20260904155746 64 315 5.0 9.0 0.00 0.00 0.30 93 1010.7
20260904154750 64 270 6.0 12.0 0.00 0.00 0.30 93 1010.7